Weather History for Manteo, NC

Change the Weather History Date:

Sunday, October 7, 2012

  Actual Average Record
Temperature  
Mean Temperature 67 °F -  
Max Temperature 75 °F 72 °F 84 °F (2007)
Min Temperature 59 °F 60 °F 48 °F (1999)
Cooling Degree Days 2    
Growing Degree Days 17 (Base 50)    
Moisture  
Dew Point 61 °F    
Average Humidity 77    
Maximum Humidity 88    
Minimum Humidity 60    
Precipitation  
Precipitation 0.00 in - - ()
Sea Level Pressure  
Sea Level Pressure 30.00 in    
Wind  
Wind Speed 11 mph (NNE)    
Max Wind Speed 16 mph    
Max Gust Speed 23 mph    
Visibility 10 miles    
Events Rain    
Averages and records for this station are not official NWS values.
T = Trace of Precipitation, MM = Missing Value Source: NWS Daily Summary

Daily Weather History Graph

Daily Weather History Graph

Search for Another Location

Airport:

Trip Planner

Search our weather history database for the weather conditions in past years. The results will help you decide how hot, cold, wet, or windy it might be!

Date:

Astronomy

Oct. 07, 2012 Rise Set
Actual Time 7:03 AM EDT 6:37 PM EDT
Civil Twilight 6:37 AM EDT 7:02 PM EDT
Nautical Twilight 6:07 AM EDT 7:32 PM EDT
Astronomical Twilight 5:38 AM EDT 8:02 PM EDT
Moon 11:54 PM EDT (10/7) 1:30 PM EDT (10/7)
Length of Visible Light 12h 25m
Length of Day
11h 34m
Waning Gibbous, 56% of the Moon is Illuminated
Oct 7
Waning Gibbous
Oct 8
Last Quarter
Oct 15
New
Oct 21
First Quarter
Oct 29
Full

Hourly Weather History & Observations

Time (EDT) Temp. Dew Point Humidity Pressure Visibility Wind Dir Wind Speed Gust Speed Precip Events Conditions
12:15 AM 71.6 °F 64.4 °F 78% 29.96 in 10.0 mi NNE 12.7 mph - N/A   Unknown
12:35 AM 69.8 °F 62.6 °F 78% 29.96 in 10.0 mi NNE 10.4 mph - N/A   Unknown
12:55 AM 69.8 °F 60.8 °F 73% 29.96 in 10.0 mi NNE 9.2 mph 18.4 mph N/A   Unknown
1:15 AM 69.8 °F 60.8 °F 73% 29.96 in 10.0 mi NNE 12.7 mph 16.1 mph N/A   Unknown
1:35 AM 69.8 °F 60.8 °F 73% 29.97 in 10.0 mi NNE 13.8 mph 18.4 mph N/A   Unknown
1:55 AM 69.8 °F 55.4 °F 60% 29.98 in 10.0 mi NNE 15.0 mph 19.6 mph N/A   Unknown
2:15 AM 69.8 °F 55.4 °F 60% 29.97 in 10.0 mi NNE 10.4 mph - N/A   Unknown
2:35 AM 69.8 °F 59.0 °F 68% 29.97 in 10.0 mi NE 13.8 mph 17.3 mph N/A   Unknown
2:55 AM 69.8 °F 59.0 °F 68% 29.97 in 10.0 mi NE 12.7 mph - N/A   Unknown
3:15 AM 68.0 °F 59.0 °F 73% 29.97 in 10.0 mi NNE 10.4 mph 16.1 mph N/A   Unknown
3:35 AM 68.0 °F 60.8 °F 78% 29.97 in 10.0 mi NE 12.7 mph 17.3 mph N/A   Unknown
3:55 AM 68.0 °F 60.8 °F 78% 29.97 in 10.0 mi NE 11.5 mph - N/A   Unknown
4:15 AM 69.8 °F 60.8 °F 73% 29.97 in 10.0 mi NE 9.2 mph - N/A   Unknown
4:35 AM 69.8 °F 60.8 °F 73% 29.97 in 10.0 mi NE 12.7 mph 18.4 mph N/A   Unknown
4:55 AM 69.8 °F 60.8 °F 73% 29.97 in 10.0 mi NE 11.5 mph - N/A   Unknown
5:15 AM 68.0 °F 60.8 °F 78% 29.97 in 10.0 mi NE 13.8 mph - N/A   Unknown
5:35 AM 68.0 °F 60.8 °F 78% 29.98 in 10.0 mi NE 11.5 mph 16.1 mph N/A   Unknown
5:55 AM 68.0 °F 60.8 °F 78% 29.98 in 10.0 mi NE 11.5 mph 18.4 mph N/A   Unknown
6:15 AM 68.0 °F 60.8 °F 78% 29.98 in 10.0 mi NE 12.7 mph - N/A   Unknown
6:35 AM 68.0 °F 60.8 °F 78% 29.98 in 10.0 mi ENE 11.5 mph - N/A   Unknown
6:55 AM 68.0 °F 60.8 °F 78% 29.98 in 10.0 mi NE 11.5 mph - N/A   Unknown
7:15 AM 68.0 °F 60.8 °F 78% 29.98 in 10.0 mi NE 9.2 mph - N/A   Unknown
7:55 AM 69.8 °F 62.6 °F 78% 29.98 in 10.0 mi NNE 11.5 mph - N/A   Unknown
8:15 AM 69.8 °F 60.8 °F 73% 29.99 in 10.0 mi NNE 13.8 mph 18.4 mph N/A   Unknown
8:35 AM 69.8 °F 60.8 °F 73% 29.99 in 10.0 mi NNE 9.2 mph - N/A   Unknown
8:55 AM 69.8 °F 62.6 °F 78% 30.00 in 10.0 mi NE 9.2 mph - N/A   Unknown
9:35 AM 71.6 °F 62.6 °F 73% 30.00 in 10.0 mi NE 10.4 mph - N/A   Unknown
9:55 AM 73.4 °F 62.6 °F 69% 30.01 in 10.0 mi NNE 9.2 mph - N/A   Unknown
10:15 AM 73.4 °F 62.6 °F 69% 30.02 in 10.0 mi NNE 9.2 mph - N/A   Unknown
10:35 AM 71.6 °F 62.6 °F 73% 30.02 in 10.0 mi NNE 8.1 mph - N/A   Unknown
10:55 AM 71.6 °F 62.6 °F 73% 30.01 in 10.0 mi NE 8.1 mph - N/A   Unknown
11:15 AM 73.4 °F 64.4 °F 73% 29.99 in 10.0 mi East 8.1 mph - N/A   Unknown
11:35 AM 73.4 °F 62.6 °F 69% 30.00 in 10.0 mi NNE 8.1 mph - N/A   Unknown
11:55 AM 73.4 °F 62.6 °F 69% 30.00 in 10.0 mi NE 3.5 mph - N/A   Unknown
12:15 PM 73.4 °F 64.4 °F 73% 30.00 in 10.0 mi North 3.5 mph - N/A   Unknown
12:55 PM 75.2 °F 64.4 °F 69% 29.99 in 10.0 mi NNE 5.8 mph - N/A   Unknown
1:15 PM 71.6 °F 62.6 °F 73% 29.99 in 10.0 mi North 15.0 mph 23.0 mph N/A   Unknown
1:35 PM 71.6 °F 62.6 °F 73% 29.98 in 10.0 mi North 16.1 mph 20.7 mph N/A   Unknown
1:55 PM 69.8 °F 60.8 °F 73% 29.98 in 10.0 mi NNE 13.8 mph 18.4 mph N/A   Unknown
2:15 PM 69.8 °F 60.8 °F 73% 29.98 in 10.0 mi North 15.0 mph 18.4 mph N/A   Unknown
2:35 PM 68.0 °F 60.8 °F 78% 29.98 in 10.0 mi NNE 11.5 mph - N/A   Unknown
2:55 PM 68.0 °F 60.8 °F 78% 29.98 in 10.0 mi North 12.7 mph - N/A   Unknown
3:15 PM 69.8 °F 60.8 °F 73% 29.96 in 10.0 mi North 8.1 mph - N/A   Unknown
3:35 PM 71.6 °F 62.6 °F 73% 29.96 in 10.0 mi NNE 8.1 mph - N/A   Unknown
3:55 PM 69.8 °F 62.6 °F 78% 29.96 in 10.0 mi NNE 8.1 mph - N/A   Unknown
4:15 PM 69.8 °F 62.6 °F 78% 29.96 in 10.0 mi North 6.9 mph - N/A   Unknown
4:35 PM 69.8 °F 62.6 °F 78% 29.96 in 10.0 mi North 9.2 mph - N/A   Unknown
4:55 PM 68.0 °F 62.6 °F 83% 29.97 in 10.0 mi North 9.2 mph - N/A   Unknown
5:15 PM 69.8 °F 62.6 °F 78% 29.97 in 10.0 mi North 4.6 mph - N/A   Unknown
5:35 PM 69.8 °F 62.6 °F 78% 29.97 in 10.0 mi North 8.1 mph - N/A   Unknown
5:55 PM 69.8 °F 62.6 °F 78% 29.97 in 10.0 mi North 6.9 mph - N/A   Unknown
6:15 PM 69.8 °F 62.6 °F 78% 29.98 in 10.0 mi North 5.8 mph - N/A   Unknown
6:35 PM 68.0 °F 62.6 °F 83% 29.99 in 10.0 mi North 5.8 mph - N/A   Unknown
6:55 PM 68.0 °F 62.6 °F 83% 29.99 in 10.0 mi North 4.6 mph - N/A   Unknown
7:15 PM 68.0 °F 62.6 °F 83% 29.99 in 10.0 mi North 3.5 mph - N/A   Unknown
7:35 PM 68.0 °F 62.6 °F 83% 30.00 in 10.0 mi NNW 3.5 mph - N/A   Unknown
7:55 PM 68.0 °F 62.6 °F 83% 30.01 in 10.0 mi NNW 9.2 mph - N/A   Unknown
8:15 PM 66.2 °F 60.8 °F 83% 30.02 in 10.0 mi NNW 11.5 mph 19.6 mph N/A   Unknown
8:35 PM 64.4 °F 59.0 °F 83% 30.03 in 10.0 mi NNW 9.2 mph - N/A   Unknown
8:55 PM 62.6 °F 59.0 °F 88% 30.05 in 10.0 mi NNW 6.9 mph 16.1 mph N/A   Unknown
9:15 PM 62.6 °F 59.0 °F 88% 30.07 in 10.0 mi NNW 8.1 mph 16.1 mph N/A   Unknown
9:35 PM 62.6 °F 59.0 °F 88% 30.08 in 5.0 mi NNW 8.1 mph - N/A   Mist
9:55 PM 60.8 °F 57.2 °F 88% 30.09 in 3.0 mi NNW 10.4 mph 18.4 mph N/A Rain Light Rain
10:15 PM 60.8 °F 57.2 °F 88% 30.10 in 10.0 mi NNW 11.5 mph 21.9 mph N/A   Unknown
10:35 PM 60.8 °F 55.4 °F 82% 30.10 in 10.0 mi North 9.2 mph 17.3 mph N/A   Unknown
10:55 PM 60.8 °F 55.4 °F 82% 30.10 in 10.0 mi North 15.0 mph 19.6 mph N/A   Unknown
11:15 PM 60.8 °F 55.4 °F 82% 30.09 in 10.0 mi North 13.8 mph 18.4 mph N/A   Unknown
11:35 PM 59.0 °F 55.4 °F 88% 30.09 in 10.0 mi North 15.0 mph 19.6 mph N/A   Unknown
11:55 PM 59.0 °F 53.6 °F 82% 30.09 in 10.0 mi North 11.5 mph 18.4 mph N/A   Unknown